This demonstration page uses our WeatherBlox Daily Observations layout. Learn more.

Left ArrowRight Arrow

Hourly Observations for November 9, 2016

Temp ( °F °C ) Dew Point ( °F °C ) Humidity (%) Winds ( mph kmh ) Pressure ( in mb ) Visibility ( mi km ) Precip ( " mm )
12:53 am 00:53 Cloudy 57 13.9 47 8.3 69 69 NNE 5 7 30.29 1026 10 16 0.00 0.00
1:53 am 01:53 Cloudy 55 12.8 48 8.9 77 77 N 5 7 30.29 1026 10 16 0.00 0.00
2:53 am 02:53 Cloudy 55 12.8 46 7.8 72 72 N 5 7 30.29 1026 10 16 0.00 0.00
3:53 am 03:53 Cloudy 54 12.2 45 7.2 72 72 N 7 11 30.29 1026 10 16 0.00 0.00
4:53 am 04:53 Cloudy 54 12.2 44 6.7 69 69 NNE 8 13 30.29 1026 10 16 0.00 0.00
5:53 am 05:53 Cloudy 53 11.7 45 7.2 74 74 N 6 9 30.31 1026 10 16 0.00 0.00
6:53 am 06:53 Cloudy 53 11.7 45 7.2 74 74 N 8 13 30.32 1027 10 16 0.00 0.00
7:53 am 07:53 Cloudy 53 11.7 44 6.7 72 72 N 9 15 30.34 1027 10 16 0.00 0.00
8:53 am 08:53 Cloudy 50 10 44 6.7 80 80 N 10 17 30.36 1028 10 16 0.00 0.00
9:53 am 09:53 Cloudy 51 10.6 42 5.6 71 71 N 13 20 30.36 1028 10 16 0.00 0.00
10:53 am 10:53 Cloudy 53 11.7 43 6.1 69 69 N 10 17 30.36 1028 10 16 0.00 0.00
11:53 am 11:53 Cloudy with Mist and Fog 50 10 47 8.3 89 89 NNE 10 17 30.36 1028 2 3 0.00 0.00
12:01 pm 12:01 Cloudy with Mist and Fog 50 10 47 8.3 89 89 NNE 7 11 30.42 1030 2 3 0.00 0.00
12:06 pm 12:06 Cloudy with Mist and Fog 50 10 47 8.3 89 89 NNE 6 9 30.42 1030 2 3 0.00 0.00
12:15 pm 12:15 Cloudy with Mist and Fog 50 10 48 8.9 93 93 NNE 8 13 30.42 1030 3 4 0.00 0.00
12:29 pm 12:29 Cloudy with Mist and Fog 50 10 48 8.9 93 93 NNE 8 13 30.42 1030 2 3 0.00 0.00
12:42 pm 12:42 Cloudy with Mist and Fog 50 10 48 9 94 94 NNE 8 13 30.39 1029 1 1 0.00 0.00
12:47 pm 12:47 Cloudy with Mist and Fog 48 9 48 9 100 100 NE 8 13 30.39 1029 1 2 0.00 0.00
12:53 pm 12:53 Cloudy with Mist and Fog 49 9.4 48 8.9 97 97 NNE 7 11 30.35 1028 1 2 0.00 0.00
1:03 pm 13:03 Cloudy with Mist and Fog 50 10 48 9 94 94 NNE 7 11 30.39 1029 3 5 0.00 0.00
1:17 pm 13:17 Cloudy with Mist and Fog 50 10 49 9.4 96 96 NNE 7 11 30.39 1029 2 3 0.00 0.00
1:21 pm 13:21 Cloudy with Mist and Fog 50 10 49 9.4 96 96 N 8 13 30.39 1029 1 2 0.00 0.00
1:34 pm 13:34 Cloudy with Mist and Fog 48 9 48 9 100 100 N 8 13 30.39 1029 2 2 0.00 0.00
1:39 pm 13:39 Cloudy with Mist and Fog 50 10 49 9.4 96 96 N 8 13 30.39 1029 3 5 0.00 0.00
1:45 pm 13:45 Cloudy 50 10 49 9.4 96 96 N 8 13 30.39 1029 8 13 0.00 0.00
1:53 pm 13:53 Cloudy 50 10 49 9.4 96 96 N 8 13 30.32 1027 10 16 0.00 0.00
2:03 pm 14:03 Cloudy 50 10 48 9 94 94 N 9 15 30.36 1028 10 16 0.00 0.00
2:12 pm 14:12 Cloudy 52 11 48 9 88 88 N 10 17 30.33 1027 10 16 0.00 0.00
2:53 pm 14:53 Cloudy 51 10.6 48 8.9 89 89 N 9 15 30.31 1026 10 16 0.00 0.00
3:53 pm 15:53 Cloudy 51 10.6 49 9.4 92 92 NNW 10 17 30.30 1026 10 16 0.00 0.00
4:03 pm 16:03 Cloudy 52 11 48 9 88 88 NNW 9 15 30.33 1027 10 16 0.00 0.00
4:53 pm 16:53 Cloudy 52 11.1 49 9.4 89 89 NNW 8 13 30.30 1026 10 16 0.00 0.00
5:53 pm 17:53 Cloudy 53 11.7 50 10 89 89 NNE 5 7 30.31 1026 10 16 0.00 0.00
6:16 pm 18:16 Cloudy 54 12 50 10 88 88 N 6 9 30.33 1027 10 16 0.00 0.00
6:53 pm 18:53 Cloudy 53 11.7 50 10 89 89 N 6 9 30.31 1027 10 16 0.00 0.00
7:53 pm 19:53 Cloudy 53 11.7 50 10 89 89 NNE 5 7 30.32 1027 10 16 0.00 0.00
8:46 pm 20:46 Cloudy 54 12 50 10 88 88 N 5 7 30.33 1027 10 16 0.00 0.00
8:53 pm 20:53 Cloudy 53 11.7 50 10 89 89 N 5 7 30.32 1027 10 16 0.00 0.00
9:53 pm 21:53 Cloudy 53 11.7 51 10.6 93 93 NNE 5 7 30.33 1027 10 16 0.00 0.00
10:53 pm 22:53 Cloudy 53 11.7 51 10.6 93 93 Calm 30.32 1027 10 16 0.00 0.00
11:17 pm 23:17 Cloudy 53 11.7 51 10.6 93 93 Calm 30.33 1027 10 16 0.00 0.00
11:36 pm 23:36 Cloudy 53 11.7 51 10.6 93 93 E 3 6 30.36 1028 10 16 0.00 0.00
11:53 pm 23:53 Cloudy 53 11.7 51 10.6 93 93 SE 5 7 30.32 1027 10 16 0.00 0.00

Powered by AerisWeather